Preview of NWS' New Version of Forecast
This preview is not operational and should not be used for support decisions.

Regional Weather Roundup (RWR)

Issued by National Weather Service (NWS)

                            
000
ASUS43 KLSX 181507
RWRMO 

WEATHER SUMMARY FOR MISSOURI
NATIONAL WEATHER SERVICE SPRINGFIELD MO
1000 AM CDT SAT MAY 18 2019

NOTE: "FAIR" INDICATES FEW OR NO CLOUDS BELOW 12,000 FEET WITH NO
       SIGNIFICANT WEATHER AND/OR OBSTRUCTIONS TO VISIBILITY.
       CURRENT SKY AND/OR WEATHER CONDITIONS ARE NOT AVAILABLE FOR
       CHILLICOTHE AND FARMINGTON.

MOZ001>031-035>038-043-044-053-054-181600-
...NORTHERN AND WESTERN MISSOURI...
  
CITY           SKY/WX    TMP DP  RH WIND       PRES   REMARKS
KANSAS CTY INT CLOUDY    66  59  78 SE10      29.68F                  
KANSAS C DTWN  RAIN      68  59  73 CALM      29.69S                  
LEE'S SUMMIT   PTSUNNY   68  64  87 SE6       29.72S                  
ST JOSEPH      SUNNY     71  64  78 SE13      29.64R                  
CHILLICOTHE      N/A     69  64  84 S8        29.71F                  
KIRKSVILLE     CLOUDY    66  64  93 S8        29.72F                  
     
$$
MOZ066>068-077>081-088>096-101>105-181600-
...SOUTHWEST MISSOURI...
  
CITY           SKY/WX    TMP DP  RH WIND       PRES   REMARKS
SPRINGFIELD    CLOUDY    71  63  75 S14       29.79F                  
JOPLIN         CLOUDY    74  67  78 S17G28    29.74S                  
BRANSON        PTSUNNY   73  64  73 S12G18    29.84R                  
               
$$
MOZ032>034-039>042-045>050-055>058-069>072-181600-
...CENTRAL MISSOURI...  
  
CITY           SKY/WX    TMP DP  RH WIND       PRES   REMARKS
COLUMBIA       CLOUDY    73  62  68 S16       29.75F                  
JEFFERSON CITY CLOUDY    76  63  64 S13       29.76S                  
ROLLA          CLOUDY    73  62  68 S13G25    29.81F                  
SEDALIA        PTSUNNY   70  64  81 S15G25    29.74R                  
WHITEMAN AFB   TSTM      68  67  98 NW9       29.70R                  
WARRENSBURG    CLOUDY    64  63  94 E3        29.73F                  
OSAGE BEACH    CLOUDY    73  65  75 S13G18    29.79R                  
               
$$
MOZ051-052-059>065-181600-
...EAST CENTRAL MISSOURI...
  
CITY           SKY/WX    TMP DP  RH WIND       PRES   REMARKS
ST LOUIS INTL  MOSUNNY   81  62  52 SW18G24   29.81F                  
SPIRIT OF STL  MOSUNNY   82  64  54 S18G28    29.79F                  
ST CHARLES     MOSUNNY   80  63  55 SW23G30   29.79F                  
                   
$$
MOZ072>076-082>087-097>100-106>115-181600-
...SOUTH CENTRAL AND SOUTHEAST MISSOURI...
  
CITY           SKY/WX    TMP DP  RH WIND       PRES   REMARKS
CAPE GIRARDEAU FAIR      79  64  60 S15G23    29.90F                  
FARMINGTON     SUNNY     77  65  66 SW21G26   29.87F                  
POPLAR BLUFF   FAIR      78  67  68 S13       29.89F                  
WEST PLAINS    MOSUNNY   76  63  64 S14G23    29.88S                  
                                       
$$